Change the Weather History Date:

Friday, March 29, 2013

  Actual Average Record
Temperature  
Mean Temperature 53 °F 47 °F  
Max Temperature 76 °F 63 °F 90 °F (1943)
Min Temperature 29 °F 30 °F 10 °F (1930)
Degree Days  
Heating Degree Days 12 18  
Month to date heating degree days 681 661  
Since 1 July heating degree days 4780 4972  
Cooling Degree Days 0 0  
Month to date cooling degree days 0 0  
Year to date cooling degree days 0 0  
Growing Degree Days 2 (Base 50)    
Moisture  
Dew Point 33 °F    
Average Humidity 50    
Maximum Humidity 85    
Minimum Humidity 15    
Precipitation  
Precipitation 0.00 in 0.03 in 0.50 in (1949)
Month to date precipitation 0.11 0.78  
Year to date precipitation 0.23 1.45  
Sea Level Pressure  
Sea Level Pressure 30.00 in    
Wind  
Wind Speed 5 mph (South)    
Max Wind Speed 18 mph    
Max Gust Speed 25 mph    
Visibility 10 miles    
Events      
T = Trace of Precipitation, MM = Missing Value Source: NWS Daily Summary

Daily Weather History Graph

Daily Weather History Graph

Search for Another Location

Airport or City:

Trip Planner

Search our weather history database for the weather conditions in past years. The results will help you decide how hot, cold, wet, or windy it might be!

Date:

Astronomy

Mar. 29, 2013 Rise Set
Actual Time 6:40 AM MDT 7:11 PM MDT
Civil Twilight 6:13 AM MDT 7:37 PM MDT
Nautical Twilight 5:42 AM MDT 8:09 PM MDT
Astronomical Twilight 5:10 AM MDT 8:41 PM MDT
Moon 10:10 PM MDT (3/29) 7:53 AM MDT (3/29)
Length of Visible Light 13h 24m
Length of Day
12h 31m
Waning Gibbous, 93% of the Moon is Illuminated
Mar 29
Waning Gibbous
Apr 2
Last Quarter
Apr 10
New
Apr 18
First Quarter
Apr 25
Full

Hourly Weather History & Observations

Time (MDT) Temp. Windchill Dew Point Humidity Pressure Visibility Wind Dir Wind Speed Gust Speed Precip Events Conditions
12:53 AM 42.1 °F - 30.9 °F 65% 30.04 in 10.0 mi Calm Calm - N/A   Clear
1:53 AM 39.9 °F 37.8 °F 30.9 °F 70% 30.05 in 10.0 mi East 3.5 mph - N/A   Clear
2:53 AM 39.0 °F - 30.9 °F 73% 30.04 in 10.0 mi Calm Calm - N/A   Clear
3:53 AM 39.0 °F - 32.0 °F 76% 30.04 in 10.0 mi Calm Calm - N/A   Clear
4:53 AM 36.0 °F - 30.0 °F 79% 30.05 in 10.0 mi Calm Calm - N/A   Clear
5:53 AM 30.0 °F 26.5 °F 26.1 °F 85% 30.07 in 9.0 mi SW 3.5 mph - N/A   Clear
6:53 AM 30.0 °F 25.2 °F 26.1 °F 85% 30.09 in 6.0 mi SSW 4.6 mph - N/A   Clear
7:53 AM 37.9 °F 35.5 °F 32.0 °F 79% 30.09 in 7.0 mi SSW 3.5 mph - N/A   Clear
8:53 AM 44.1 °F - 35.1 °F 71% 30.09 in 8.0 mi Calm Calm - N/A   Clear
9:53 AM 50.0 °F - 37.0 °F 61% 30.06 in 9.0 mi Calm Calm - N/A   Clear
10:53 AM 57.9 °F - 37.9 °F 47% 30.05 in 10.0 mi SW 3.5 mph - N/A   Clear
11:53 AM 66.0 °F - 41.0 °F 40% 30.02 in 10.0 mi Variable 4.6 mph - N/A   Clear
12:53 PM 70.0 °F - 39.0 °F 32% 29.98 in 10.0 mi Variable 3.5 mph - N/A   Clear
1:53 PM 72.0 °F - 35.1 °F 26% 29.95 in 10.0 mi SSE 10.4 mph - N/A   Clear
2:53 PM 72.0 °F - 30.9 °F 22% 29.92 in 10.0 mi Calm Calm - N/A   Scattered Clouds
3:53 PM 73.9 °F - 30.0 °F 20% 29.89 in 10.0 mi NNW 3.5 mph - N/A   Partly Cloudy
4:53 PM 75.0 °F - 25.0 °F 16% 29.88 in 10.0 mi Variable 3.5 mph - N/A   Clear
5:53 PM 72.0 °F - 21.9 °F 15% 29.91 in 10.0 mi WNW 9.2 mph - N/A   Clear
6:53 PM 66.9 °F - 24.1 °F 20% 29.92 in 10.0 mi West 4.6 mph - N/A   Clear
7:53 PM 57.9 °F - 26.1 °F 30% 29.93 in 10.0 mi NNE 5.8 mph - N/A   Clear
8:53 PM 60.1 °F - 41.0 °F 49% 29.95 in 10.0 mi SE 15.0 mph - N/A   Mostly Cloudy
9:53 PM 60.1 °F - 46.9 °F 62% 29.97 in 10.0 mi South 18.4 mph 21.9 mph N/A   Overcast
10:53 PM 59.0 °F - 48.0 °F 67% 29.96 in 10.0 mi ESE 10.4 mph - N/A   Mostly Cloudy
11:53 PM 54.0 °F - 46.0 °F 75% 29.95 in 10.0 mi South 6.9 mph - N/A   Clear